SCP
0 0 0 0 0 0 0 0 0 0 0 0 0 0 0 0 0 0 0 0 0 0 0 0 0 0 0 0 0 0 -0 0 0 0 0 0 0 0 0 -0 -0 0 0 0 0 0 0 0 0 0 0 0 0 0
0 0 0 0 0 0 0 0 0 0 0 0 0 0 0 0 0 0 0 0 0 0 0 0 0 0 0 0 0 0 0 0 0 0 0 0 0 0 0 -0 0 0 0 0 0 0 0 0 0 0 0 0 0 0
0 0 0 0 0 0 0 0 0 0 0 0 0 0 0 0 0 0 0 0 0 0 0 0 0 0 0 0 0 0 0 0 0 0 0 0 0 0 0 0 0 0 0 0 0 0 0 0 0 0 0 0 0 0
0 0 0 0 0 0 0 0 0 0 0 0 0 0 0 0 0 0 0 0 0 0 0 0 0 0 0 0 0 0 0 0 0 0 0 0 0 0 0 0 0 0 0 0 0 0 0 0 0 0 0 0 0 0
0 0 0 0 0 0 0 0 0 0 0 0 0 0 0 0 0 0 0 0 0 0 0 0 0 0 0 0 0 0 0 0 0 0 0 0 0 0 0 0 0 0 0 0 0 0 0 0 0 0 0 0 0 0
0 0 0 0 0 0 0 0 0 0 0 0 0 0 0 0 0 0 0 0 0 0 0 0 -0 0 0 0 0 0 0 0 0 0 0 0 0 0 0 0 0 0 0 0 0 0 0 0 0 0 0 0 0 0
0 0 0 0 0 0 0 0 0 0 0 0 0 0 0 0 0 0 0 0 0 0 0 0 0 0 0 0 0 0 0 0 0 0 0 0 0 0 0 0 0 0 0 0 0 0 0 0 0 0 0 0 0 0
0 0 0 0 0 0 0 0 0 0 0 0 0 0 0 0 0 0 0 0 0 0 0 0 0 0 -0 -0 0 0 0 0 0 0 0 0 0 0 0 0 0 0 0 0 0 0 0 0 0 0 0 0 0 0
0 0 0 0 0 0 0 0 0 0 0 0 0 0 0 0 0 0 0 0 0 0 -0 0 0 0 0 0 0 0 0 0 0 0 0 0 0 0 0 0 0 0 0 0 0 0 0 0 0 0 0 0 0 0
0 0 0 0 0 0 0 0 0 0 0 0 0 0 0 0 0 0 0 0 0 0 0 -0 -0 0 0 0 0 0 0 0 0 0 0 0 0 0 0 0 0 0 0 0 0 0 0 0 0 0 0 0 0 0
0 0 0 0 0 0 0 0 0 0 0 0 0 0 0 0 0 0 0 0 0 0 -0 0 0 0 0 0 0 0 0 0 0 0 0 0 0 0 0 0 0 0 0 0 0 0 0 0 0 0 0 0 0 0
0 0 0 0 0 0 0 0 0 0 0 0 0 0 0 0 0 0 0 0 0 0 0 0 0 0 0 0 0 0 0 0 0 0 0 0 0 0 0 0 0 0 0 0 0 0 0 0 0 0 0 0 0 0
-0 -0 0 0 0 0 0 0 0 0 0 0 0 0 0 0 0 0 0 0 0 0 0 0 0 0 0 0 0 0 0 0 0 0 0 0 0 0 0 0 0 0 0 0 0 0 0 0 0 0 0 0 0 0
0 0 0 0 0 0 0 0 0 0 0 0 0 0 0 0 0 0 0 0 0 0 0 0 0 0 0 0 0 0 0 0 0 0 0 0 0 0 0 0 0 0 0 0 0 0 0 0 0 0 0 0 0 0
0 0 0 0 0 0 0 0 0 0 0 0 0 0 0 0 0 0 0 0 0 0 0 0 0 0 0 0 0 0 0 0 0 0 0 0 0 0 0 0 0 0 0 0 0 0 0 0 0 0 0 0 0 0
-0 0 0 0 0 0 0 0 0 0 0 0 0 0 0 0 0 0 0 0 0 0 0 0 0 0 0 0 0 0 0 0 0 0 0 0 0 0 0 0 0 0 0 0 0 0 0 0 0 0 0 0 0 0
0 0 0 0 0 0 0 0 0 0 0 0 0 0 0 0 0 0 0 0 0 0 0 0 0 0 0 0 0 0 0 0 0 0 0 0 0 0 0 0 0 0 0 0 0 0 0 0 0 0 0 0 0 0
0 0 0 0 0 0 0 0 0 0 0 0 0 0 0 0 0 0 0 0 0 0 0 0 0 0 0 0 0 0 0 0 0 0 0 0 0 0 0 0 0 0 0 0 0 0 0 0 0 0 0 0 0 0
0 0 0 0 0 0 0 0 0 0 0 0 0 0 0 0 0 0 0 0 0 0 0 0 0 0 0 0 0 0 0 0 0 0 0 0 0 0 0 0 0 0 0 0 0 0 0 0 0 0 0 0 0 0
-0 -0 -0 0 0 0 0 0 0 0 0 0 0 0 0 0 0 0 0 0 0 0 0 0 0 0 0 0 0 0 0 0 0 0 0 0 0 0 0 0 0 0 0 0 0 0 0 0 0 0 0 0 0 0
0 0 0 0 0 0 0 0 0 0 0 0 0 0 0 0 0 0 0 0 0 0 0 0 0 0 0 0 0 0 0 0 0 0 0 0 0 0 0 0 0 0 0 0 0 0 0 0 0 0 0 0 0 0
0 0 0 0 0 0 0 0 0 0 0 0 0 0 0 0 0 0 0 0 0 0 0 0 0 0 0 0 0 0 0 0 0 0 0 0 0 0 0 0 0 0 0 0 0 0 0 0 0 0 0 0 0 0
0 0 0 0 0 0 0 0 0 0 0 0 0 0 0 0 0 0 0 0 0 0 0 0 0 0 0 0 0 0 0 0 0 0 0 0 0 0 0 0 0 0 0 0 0 0 0 0 0 0 0 0 0 0
0 0 0 0 0 0 0 0 0 0 0 0 0 0 0 0 0 0 0 0 0 0 0 0 0 0 0 0 0 0 0 0 0 0 0 0 0 0 0 0 0 0 0 0 0 0 0 0 0 0 0 0 0 0
0 0 0 0 0 0 0 0 0 0 0 0 0 0 0 0 0 0 0 0 0 0 0 0 0 0 0 0 0 0 0 0 0 0 0 0 0 0 0 0 0 0 0 0 0 0 0 0 0 0 0 0 0 0
0 0 0 0 0 0 0 0 0 0 0 0 0 0 0 0 0 0 0 0 0 0 0 0 0 0 0 0 0 0 0 0 0 0 0 0 0 0 0 0 0 0 0 0 0 0 0 0 0 0 0 0 0 0
0 0 0 0 0 0 0 0 0 0 0 0 0 0 0 0 0 0 0 0 0 0 0 0 0 0 0 0 0 0 0 0 0 0 0 0 0 0 0 0 0 0 0 0 0 0 0 0 0 0 0 0 0 0
0 0 0 0 0 0 0 0 0 0 0 0 0 0 0 0 0 0 0 0 0 0 0 0 0 0 0 0 0 0 0 0 0 0 0 0 0 0 0 0 0 0 0 0 0 0 0 0 0 0 0 0 0 0
0 0 0 0 0 0 0 0 0 0 0 0 0 0 0 0 0 0 0 0 0 0 0 0 0 0 0 0 0 0 0 0 0 0 0 0 0 0 0 0 0 0 0 0 0 0 0 0 0 0 0 0 0 0
0 0 0 0 0 0 0 0 0 0 0 0 0 0 0 0 0 0 0 0 0 0 0 0 0 0 0 0 0 0 0 0 0 0 0 0 0 0 0 0 0 0 0 0 0 0 0 0 0 0 0 0 0 0
0 0 0 0 0 0 0 0 0 0 0 0 0 0 0 0 0 0 0 0 0 0 0 0 0 0 0 0 0 0 0 0 0 0 0 0 0 0 0 0 0 0 0 0 0 0 0 0 0 0 0 0 0 0
0 0 0 0 0 0 0 0 0 0 0 0 0 0 0 0 0 0 0 0 0 0 0 0 0 0 0 0 0 0 0 0 0 0 0 0 0 0 0 0 0 0 0 0 0 0 0 -0 0 0 0 0 0 0
0 0 0 0 0 0 0 0 0 0 0 0 0 0 0 0 0 0 0 0 0 0 0 0 0 0 0 0 0 0 0 0 0 -0 0 0 0 0 0 0 0 -0 -0 -0 0 0 0 0 0 0 0 0 -0 0
Wind_Speed_500mb
74 74 70 71 74 67 64 59 61 60 63 62 61 61 57 54 51 55 59 53 52 22 39 33 67 40 21 20 16 11 7 5 2 11 6 4 6 8 8 13 9 16 10 21 24 24 32 7 9 22 8 8 8 6
72 71 69 71 69 64 60 59 58 59 63 63 63 61 57 52 53 52 56 54 55 45 26 27 44 45 53 75 46 30 14 16 32 9 10 7 8 2 9 10 3 11 13 11 17 9 8 11 3 4 4 4 1 0
73 69 66 62 61 60 58 57 55 55 57 60 62 61 58 54 52 53 57 55 36 35 38 47 58 61 58 65 61 29 32 29 16 18 6 5 7 9 18 22 8 8 5 9 4 10 10 27 24 17 18 18 15 15
66 64 58 59 60 53 53 53 52 55 53 59 60 60 55 50 48 47 50 52 45 20 9 25 40 51 48 51 72 65 44 30 33 25 8 5 5 2 7 9 14 7 13 9 7 5 4 25 33 33 27 24 22 15
57 52 53 57 52 47 49 49 50 53 52 56 59 58 53 49 47 41 48 57 53 42 8 6 20 34 34 44 60 75 60 48 31 7 3 7 6 5 2 4 4 13 12 12 11 15 8 5 50 42 31 21 15 11
48 50 52 52 46 43 45 47 49 48 50 53 58 58 49 44 37 40 25 56 61 57 16 6 12 30 36 38 54 61 65 43 32 12 7 11 13 13 5 6 5 13 14 11 7 26 16 7 44 50 35 22 13 14
50 50 47 45 41 43 47 49 48 46 46 47 49 48 46 46 44 50 16 8 23 63 18 5 7 10 22 29 36 39 49 27 25 11 8 6 12 22 4 6 4 7 19 12 27 31 18 25 27 44 30 29 18 15
49 43 42 40 38 38 49 51 47 45 43 42 40 41 44 44 44 54 61 49 30 45 26 8 7 5 23 13 5 20 21 20 19 10 8 5 9 6 7 7 12 16 16 17 18 19 13 26 33 42 38 36 32 21
38 39 37 33 32 32 40 44 46 42 41 40 37 36 33 38 45 62 55 55 61 41 8 2 11 12 33 18 14 12 17 6 10 6 6 14 5 11 5 20 19 15 10 14 23 30 35 38 39 40 38 35 35 32
32 31 30 30 31 31 37 39 40 37 35 35 34 22 13 16 34 16 17 16 19 21 25 10 9 6 18 14 7 4 6 5 7 5 11 5 4 9 7 16 19 19 22 29 37 37 45 45 46 46 44 41 39 37
28 30 30 26 28 29 33 37 37 36 33 43 24 17 17 12 26 18 14 13 14 6 19 16 42 8 10 4 6 12 3 2 7 8 9 3 6 9 17 17 17 17 19 26 25 35 38 45 47 43 40 35 32 29
23 25 25 23 25 29 34 36 40 42 35 34 22 22 15 11 12 9 8 5 8 14 9 9 15 25 20 16 5 9 6 3 11 8 8 4 4 17 24 20 17 19 22 29 29 31 35 37 36 35 35 30 26 24
20 21 23 23 24 24 31 38 43 47 49 37 11 12 11 9 5 12 15 10 10 7 23 22 7 22 15 16 3 5 9 7 7 5 8 7 12 19 23 22 21 23 25 28 29 29 31 31 31 29 27 26 25 24
20 19 21 20 22 26 30 34 46 48 30 9 14 6 9 9 9 3 4 6 8 4 27 38 9 8 11 8 5 7 3 9 4 7 11 2 13 17 18 21 23 27 28 28 30 31 31 30 30 30 29 28 26 25
24 28 30 23 23 24 25 32 36 41 14 12 10 8 8 6 2 5 17 10 21 13 7 17 11 10 5 7 6 7 5 6 8 10 1 7 16 16 17 21 22 26 28 29 30 30 31 32 34 37 36 34 30 30
41 27 16 18 19 20 23 32 39 14 17 8 10 2 9 2 5 13 20 15 30 33 11 12 5 8 6 8 7 6 15 12 4 3 5 14 16 17 20 23 23 25 28 33 34 35 37 37 37 40 41 37 35 30
22 13 15 15 20 23 23 33 14 9 11 9 5 17 9 13 6 10 22 27 42 20 6 6 4 8 5 6 5 8 4 2 3 12 13 14 19 23 27 30 31 32 35 37 39 38 39 40 38 37 37 38 31 29
16 13 21 18 13 20 25 9 10 11 11 14 8 7 17 17 7 11 24 36 22 16 13 6 7 13 8 6 4 3 9 16 18 19 20 22 26 30 32 38 39 39 41 41 40 41 39 36 35 36 33 31 25 24
30 24 24 16 16 8 9 11 12 8 12 14 24 20 18 16 35 30 21 12 26 23 13 12 14 7 5 6 7 13 14 11 15 23 23 25 30 34 38 41 41 41 40 39 37 38 37 32 32 29 26 24 17 16
18 17 17 11 10 10 11 12 11 14 6 8 11 13 13 13 17 25 42 37 30 16 16 11 6 4 7 7 5 11 18 21 33 34 29 28 31 36 39 41 42 41 41 39 37 33 30 28 26 23 19 15 12 8
2 9 11 7 15 21 15 10 13 10 10 12 13 8 10 18 20 27 28 28 24 16 6 16 18 14 6 4 8 16 21 21 24 17 35 35 31 34 37 37 36 36 37 35 31 30 24 23 21 17 13 9 5 3
9 11 11 17 14 13 16 16 11 8 9 8 9 11 11 6 10 18 14 31 14 14 11 13 14 11 12 13 15 18 18 15 22 31 32 36 37 36 36 34 31 35 35 33 26 22 19 17 14 10 7 4 4 7
16 11 14 15 12 14 7 10 9 11 6 5 7 6 6 7 10 13 12 14 10 17 14 11 12 14 19 17 16 22 24 27 33 33 32 34 34 33 33 31 26 26 28 28 22 17 12 11 8 6 4 5 9 13
16 17 22 19 28 5 7 14 11 10 9 7 6 6 7 8 7 11 8 7 12 10 12 11 14 25 27 26 30 28 27 26 33 33 31 32 34 32 27 27 23 22 21 20 16 11 7 4 4 5 8 11 15 20
15 26 20 16 24 14 13 9 10 8 7 8 6 6 5 9 6 7 5 4 13 14 16 17 20 26 33 34 33 33 29 28 31 32 29 23 27 27 24 21 18 15 12 10 7 3 4 8 11 14 18 23 27 31
18 21 13 10 13 9 6 7 9 10 7 6 7 4 6 5 8 7 3 2 5 12 16 20 23 25 30 30 30 29 30 27 22 22 25 22 19 15 13 10 7 4 1 2 5 9 12 15 18 22 25 29 34 39
13 8 13 20 9 6 9 12 11 9 9 8 6 7 5 8 6 2 6 5 8 13 17 20 21 23 26 25 24 24 23 18 15 14 14 12 8 5 2 1 3 5 9 11 13 15 18 21 24 28 31 33 38 44
13 20 9 21 15 19 6 7 9 9 6 12 4 8 5 5 4 6 7 13 13 16 18 21 21 20 19 17 15 13 10 8 7 5 3 1 5 9 11 10 10 14 16 19 22 24 27 31 35 40 42 42 44 45
13 24 6 11 9 14 15 8 5 7 10 5 3 4 4 6 13 21 21 20 22 19 19 19 17 15 12 9 6 3 1 1 3 7 8 8 12 17 18 20 23 25 25 26 29 33 34 36 39 44 48 50 52 54
30 35 9 11 8 10 16 18 16 18 15 15 16 26 28 28 26 23 19 16 15 12 10 9 6 4 2 1 2 5 7 8 10 12 14 17 20 21 25 27 28 32 34 34 34 33 35 39 41 44 48 50 51 52
16 18 14 16 9 9 19 35 46 47 48 50 48 41 23 17 25 22 13 7 7 7 6 4 3 4 5 7 7 8 10 11 12 16 19 22 24 26 28 30 32 33 34 34 35 36 39 41 43 45 46 46 43 45
18 17 9 7 6 15 12 12 13 13 13 13 15 12 9 7 6 6 10 13 5 4 2 4 6 7 8 9 11 13 16 17 18 21 24 25 26 28 29 29 31 33 34 35 36 39 41 44 45 44 46 45 43 43
7 11 11 6 7 9 17 13 12 6 11 9 12 13 10 6 3 5 7 5 5 4 4 8 11 12 13 14 15 17 18 19 22 24 27 27 27 27 27 28 29 32 35 37 37 39 40 42 44 44 45 46 47 48
Wind_Direction_500mb
247 245 242 241 238 239 234 233 236 237 238 238 232 230 232 239 240 243 248 241 243 247 266 272 242 238 230 225 214 174 143 212 178 217 189 193 275 212 169 167 179 186 201 213 220 226 236 132 84 188 250 355 351 348
244 241 240 237 236 232 228 230 234 236 238 234 231 227 230 232 238 239 247 253 249 245 244 256 265 256 251 242 238 213 232 188 202 201 195 177 228 271 203 244 304 207 194 196 193 209 180 202 350 207 172 176 160 17
244 239 234 231 229 226 225 229 232 235 237 231 228 224 227 233 237 236 238 247 259 243 261 253 264 270 252 247 243 232 215 224 210 216 198 222 216 165 221 232 206 259 192 181 182 211 211 200 200 190 161 142 125 120
245 234 227 226 222 217 224 228 233 239 235 229 225 220 222 229 234 238 237 240 243 250 249 254 256 247 259 251 239 238 246 222 232 230 214 220 228 198 219 220 205 180 139 166 278 182 151 228 203 185 159 139 132 125
234 225 221 219 212 217 224 227 232 233 230 227 223 217 218 223 230 237 244 242 238 235 281 247 264 273 257 257 245 235 229 225 218 215 207 213 178 162 226 305 219 186 172 183 214 183 153 188 199 181 170 159 156 147
226 218 217 207 209 217 224 227 232 226 226 221 217 212 209 217 227 234 261 253 237 237 255 266 272 238 249 251 248 240 226 219 210 208 188 215 195 171 204 228 264 202 191 189 184 155 129 131 188 179 166 158 156 182
218 206 201 204 214 223 223 225 225 219 215 215 213 207 212 218 220 211 202 224 232 221 218 258 270 249 223 210 223 225 217 207 210 212 212 194 207 183 198 219 30 125 174 142 143 134 111 136 170 183 187 169 161 150
198 192 196 203 215 223 221 216 209 207 206 207 209 215 221 226 231 239 238 234 248 195 197 203 240 255 184 160 196 202 192 182 192 201 177 199 155 202 218 162 159 129 143 133 145 185 163 152 159 179 182 175 153 151
192 192 196 203 216 214 208 201 198 197 200 205 211 218 221 228 236 242 243 245 246 251 284 336 174 218 176 169 158 227 200 173 158 199 203 167 185 204 144 169 154 145 156 131 133 139 141 144 143 151 164 162 166 159
178 190 199 207 201 200 199 191 191 193 198 204 199 194 197 203 237 231 208 220 219 239 230 235 224 270 197 159 140 189 246 159 160 192 148 209 211 112 142 148 159 157 160 151 142 133 137 134 140 143 147 148 148 147
180 187 186 187 187 191 196 194 196 198 200 197 187 165 167 174 175 191 206 187 205 240 208 215 196 171 214 109 150 191 206 175 143 235 177 176 267 159 173 168 166 171 162 160 159 151 148 146 145 146 145 147 149 150
175 180 188 191 198 200 200 202 201 196 192 168 150 141 169 201 207 198 201 268 169 206 164 166 188 170 160 184 145 180 173 83 198 143 94 225 195 141 165 168 164 165 157 160 152 149 149 151 149 149 146 147 150 150
180 191 197 204 204 204 197 195 191 188 140 133 131 152 160 228 221 228 201 263 188 181 168 155 169 148 139 179 195 172 161 201 118 82 199 221 136 162 166 165 160 157 155 154 155 155 152 154 151 149 146 147 150 144
203 202 196 203 196 194 187 186 190 162 150 132 152 205 188 211 213 310 277 242 331 274 183 180 137 178 140 156 167 155 121 153 98 154 231 154 154 160 164 167 160 159 156 155 154 152 152 151 149 145 144 138 130 132
168 152 146 163 179 185 185 188 191 169 140 163 164 201 220 308 340 323 305 272 350 299 267 172 133 151 144 144 159 134 138 180 190 215 84 109 142 151 153 159 160 159 158 156 150 147 145 144 144 139 132 128 130 128
159 152 143 143 162 172 174 183 194 179 127 106 56 336 346 74 328 10 354 338 350 340 285 239 184 152 135 154 130 191 134 192 200 351 63 129 130 136 142 144 145 143 143 141 138 139 136 135 135 131 126 124 121 119
141 129 141 151 181 176 177 187 166 94 80 73 77 59 77 69 60 358 348 338 342 345 359 306 96 38 85 76 72 9 71 11 353 79 101 112 123 126 129 129 130 132 132 132 132 129 128 125 122 122 125 116 117 118
96 130 126 190 151 159 155 119 91 79 69 60 84 58 63 51 17 7 352 1 359 11 14 52 357 43 31 107 119 15 76 86 93 98 105 114 117 120 124 125 127 128 126 125 125 122 118 120 124 115 115 113 117 115
72 109 143 172 176 139 76 51 42 85 73 93 99 82 77 76 45 36 21 24 51 63 69 37 61 43 19 11 10 47 79 123 117 103 104 114 117 122 124 126 126 124 122 120 121 119 116 116 112 111 109 105 100 100
67 82 101 131 140 94 79 46 56 74 68 86 82 73 77 74 40 27 35 47 56 52 43 40 60 57 357 336 55 91 101 123 125 107 100 114 123 129 127 128 126 124 121 118 114 110 111 110 106 102 98 97 90 85
116 70 111 148 65 66 81 62 65 70 97 82 100 79 80 54 35 22 18 28 59 34 54 24 21 21 40 32 94 118 132 135 130 139 133 125 129 130 126 122 122 121 117 112 111 110 109 106 105 103 95 81 64 19
192 171 101 64 75 73 73 49 73 85 73 90 59 57 49 48 34 21 27 44 58 20 26 23 38 64 84 99 106 122 125 129 131 134 134 133 131 127 122 120 127 121 116 109 109 108 107 108 109 106 91 55 336 316
140 118 68 52 85 57 29 43 69 32 62 57 50 45 37 45 36 26 71 58 68 28 63 68 80 88 101 102 114 120 123 131 131 132 135 134 130 126 124 124 121 118 116 114 112 111 114 109 98 77 46 350 321 308
88 55 34 39 32 34 23 34 40 35 55 47 43 54 35 27 41 61 74 62 17 46 80 92 109 110 105 110 103 107 113 126 125 127 127 130 126 121 122 118 117 114 110 108 106 100 88 64 15 348 329 312 304 301
79 15 23 6 17 27 32 21 12 32 56 35 67 43 12 18 65 57 65 30 35 64 78 92 110 118 109 101 100 101 107 112 116 121 120 122 119 118 117 113 108 104 103 102 82 40 330 313 316 314 307 304 302 302
67 23 45 4 6 46 354 55 29 22 8 63 41 38 40 61 68 62 42 68 80 88 101 106 108 110 107 106 110 116 114 119 126 135 130 127 121 116 111 107 108 106 79 321 293 296 301 303 303 304 306 306 306 306
47 343 26 23 13 21 45 41 34 47 51 31 351 2 50 67 73 68 116 112 127 117 112 114 120 122 117 118 118 119 121 126 136 133 124 121 124 115 88 328 295 296 299 307 309 309 309 308 309 308 308 309 311 312
51 32 35 357 39 34 81 39 28 26 15 346 312 37 70 102 143 141 144 131 130 125 123 118 118 119 119 121 123 130 139 137 138 147 161 219 293 308 307 299 297 307 306 305 306 307 310 313 312 308 307 309 311 314
19 351 47 22 36 52 42 30 351 327 325 347 37 87 109 92 128 131 131 124 118 116 119 115 113 110 108 115 124 131 136 348 295 278 284 299 306 305 302 296 300 301 303 306 306 305 303 301 302 302 307 310 312 314
10 21 64 33 50 47 12 24 32 55 87 95 96 106 99 99 111 118 122 124 119 112 106 104 101 97 83 36 324 318 319 311 301 297 303 303 297 293 293 296 297 296 296 296 295 293 293 294 295 296 298 302 305 306
29 30 48 46 72 35 53 74 78 78 83 87 97 94 92 99 85 68 74 103 139 140 107 73 38 10 349 342 336 323 307 298 298 299 297 297 297 295 290 288 288 289 292 294 295 296 296 297 298 299 301 304 306 307
27 35 24 53 39 37 71 56 54 58 49 54 43 47 53 62 72 69 42 47 80 149 129 23 8 347 330 317 307 305 305 300 297 295 294 292 290 290 292 293 293 292 293 293 295 296 296 298 299 301 303 305 308 309
40 33 47 42 27 23 8 13 39 40 43 39 34 29 32 34 65 23 355 345 356 6 301 305 314 312 307 302 298 299 295 292 293 296 298 300 300 296 293 289 285 286 289 291 292 293 294 295 297 300 302 304 306 307
Wind_Speed_850mb
74 74 70 71 74 67 64 59 61 60 63 62 61 61 57 54 51 55 59 53 52 22 39 33 67 40 21 20 16 11 7 5 2 11 6 4 6 8 8 13 9 16 10 21 24 24 32 7 9 22 8 8 8 6
72 71 69 71 69 64 60 59 58 59 63 63 63 61 57 52 53 52 56 54 55 45 26 27 44 45 53 75 46 30 14 16 32 9 10 7 8 2 9 10 3 11 13 11 17 9 8 11 3 4 4 4 1 0
73 69 66 62 61 60 58 57 55 55 57 60 62 61 58 54 52 53 57 55 36 35 38 47 58 61 58 65 61 29 32 29 16 18 6 5 7 9 18 22 8 8 5 9 4 10 10 27 24 17 18 18 15 15
66 64 58 59 60 53 53 53 52 55 53 59 60 60 55 50 48 47 50 52 45 20 9 25 40 51 48 51 72 65 44 30 33 25 8 5 5 2 7 9 14 7 13 9 7 5 4 25 33 33 27 24 22 15
57 52 53 57 52 47 49 49 50 53 52 56 59 58 53 49 47 41 48 57 53 42 8 6 20 34 34 44 60 75 60 48 31 7 3 7 6 5 2 4 4 13 12 12 11 15 8 5 50 42 31 21 15 11
48 50 52 52 46 43 45 47 49 48 50 53 58 58 49 44 37 40 25 56 61 57 16 6 12 30 36 38 54 61 65 43 32 12 7 11 13 13 5 6 5 13 14 11 7 26 16 7 44 50 35 22 13 14
50 50 47 45 41 43 47 49 48 46 46 47 49 48 46 46 44 50 16 8 23 63 18 5 7 10 22 29 36 39 49 27 25 11 8 6 12 22 4 6 4 7 19 12 27 31 18 25 27 44 30 29 18 15
49 43 42 40 38 38 49 51 47 45 43 42 40 41 44 44 44 54 61 49 30 45 26 8 7 5 23 13 5 20 21 20 19 10 8 5 9 6 7 7 12 16 16 17 18 19 13 26 33 42 38 36 32 21
38 39 37 33 32 32 40 44 46 42 41 40 37 36 33 38 45 62 55 55 61 41 8 2 11 12 33 18 14 12 17 6 10 6 6 14 5 11 5 20 19 15 10 14 23 30 35 38 39 40 38 35 35 32
32 31 30 30 31 31 37 39 40 37 35 35 34 22 13 16 34 16 17 16 19 21 25 10 9 6 18 14 7 4 6 5 7 5 11 5 4 9 7 16 19 19 22 29 37 37 45 45 46 46 44 41 39 37
28 30 30 26 28 29 33 37 37 36 33 43 24 17 17 12 26 18 14 13 14 6 19 16 42 8 10 4 6 12 3 2 7 8 9 3 6 9 17 17 17 17 19 26 25 35 38 45 47 43 40 35 32 29
23 25 25 23 25 29 34 36 40 42 35 34 22 22 15 11 12 9 8 5 8 14 9 9 15 25 20 16 5 9 6 3 11 8 8 4 4 17 24 20 17 19 22 29 29 31 35 37 36 35 35 30 26 24
20 21 23 23 24 24 31 38 43 47 49 37 11 12 11 9 5 12 15 10 10 7 23 22 7 22 15 16 3 5 9 7 7 5 8 7 12 19 23 22 21 23 25 28 29 29 31 31 31 29 27 26 25 24
20 19 21 20 22 26 30 34 46 48 30 9 14 6 9 9 9 3 4 6 8 4 27 38 9 8 11 8 5 7 3 9 4 7 11 2 13 17 18 21 23 27 28 28 30 31 31 30 30 30 29 28 26 25
24 28 30 23 23 24 25 32 36 41 14 12 10 8 8 6 2 5 17 10 21 13 7 17 11 10 5 7 6 7 5 6 8 10 1 7 16 16 17 21 22 26 28 29 30 30 31 32 34 37 36 34 30 30
41 27 16 18 19 20 23 32 39 14 17 8 10 2 9 2 5 13 20 15 30 33 11 12 5 8 6 8 7 6 15 12 4 3 5 14 16 17 20 23 23 25 28 33 34 35 37 37 37 40 41 37 35 30
22 13 15 15 20 23 23 33 14 9 11 9 5 17 9 13 6 10 22 27 42 20 6 6 4 8 5 6 5 8 4 2 3 12 13 14 19 23 27 30 31 32 35 37 39 38 39 40 38 37 37 38 31 29
16 13 21 18 13 20 25 9 10 11 11 14 8 7 17 17 7 11 24 36 22 16 13 6 7 13 8 6 4 3 9 16 18 19 20 22 26 30 32 38 39 39 41 41 40 41 39 36 35 36 33 31 25 24
30 24 24 16 16 8 9 11 12 8 12 14 24 20 18 16 35 30 21 12 26 23 13 12 14 7 5 6 7 13 14 11 15 23 23 25 30 34 38 41 41 41 40 39 37 38 37 32 32 29 26 24 17 16
18 17 17 11 10 10 11 12 11 14 6 8 11 13 13 13 17 25 42 37 30 16 16 11 6 4 7 7 5 11 18 21 33 34 29 28 31 36 39 41 42 41 41 39 37 33 30 28 26 23 19 15 12 8
2 9 11 7 15 21 15 10 13 10 10 12 13 8 10 18 20 27 28 28 24 16 6 16 18 14 6 4 8 16 21 21 24 17 35 35 31 34 37 37 36 36 37 35 31 30 24 23 21 17 13 9 5 3
9 11 11 17 14 13 16 16 11 8 9 8 9 11 11 6 10 18 14 31 14 14 11 13 14 11 12 13 15 18 18 15 22 31 32 36 37 36 36 34 31 35 35 33 26 22 19 17 14 10 7 4 4 7
16 11 14 15 12 14 7 10 9 11 6 5 7 6 6 7 10 13 12 14 10 17 14 11 12 14 19 17 16 22 24 27 33 33 32 34 34 33 33 31 26 26 28 28 22 17 12 11 8 6 4 5 9 13
16 17 22 19 28 5 7 14 11 10 9 7 6 6 7 8 7 11 8 7 12 10 12 11 14 25 27 26 30 28 27 26 33 33 31 32 34 32 27 27 23 22 21 20 16 11 7 4 4 5 8 11 15 20
15 26 20 16 24 14 13 9 10 8 7 8 6 6 5 9 6 7 5 4 13 14 16 17 20 26 33 34 33 33 29 28 31 32 29 23 27 27 24 21 18 15 12 10 7 3 4 8 11 14 18 23 27 31
18 21 13 10 13 9 6 7 9 10 7 6 7 4 6 5 8 7 3 2 5 12 16 20 23 25 30 30 30 29 30 27 22 22 25 22 19 15 13 10 7 4 1 2 5 9 12 15 18 22 25 29 34 39
13 8 13 20 9 6 9 12 11 9 9 8 6 7 5 8 6 2 6 5 8 13 17 20 21 23 26 25 24 24 23 18 15 14 14 12 8 5 2 1 3 5 9 11 13 15 18 21 24 28 31 33 38 44
13 20 9 21 15 19 6 7 9 9 6 12 4 8 5 5 4 6 7 13 13 16 18 21 21 20 19 17 15 13 10 8 7 5 3 1 5 9 11 10 10 14 16 19 22 24 27 31 35 40 42 42 44 45
13 24 6 11 9 14 15 8 5 7 10 5 3 4 4 6 13 21 21 20 22 19 19 19 17 15 12 9 6 3 1 1 3 7 8 8 12 17 18 20 23 25 25 26 29 33 34 36 39 44 48 50 52 54
30 35 9 11 8 10 16 18 16 18 15 15 16 26 28 28 26 23 19 16 15 12 10 9 6 4 2 1 2 5 7 8 10 12 14 17 20 21 25 27 28 32 34 34 34 33 35 39 41 44 48 50 51 52
16 18 14 16 9 9 19 35 46 47 48 50 48 41 23 17 25 22 13 7 7 7 6 4 3 4 5 7 7 8 10 11 12 16 19 22 24 26 28 30 32 33 34 34 35 36 39 41 43 45 46 46 43 45
18 17 9 7 6 15 12 12 13 13 13 13 15 12 9 7 6 6 10 13 5 4 2 4 6 7 8 9 11 13 16 17 18 21 24 25 26 28 29 29 31 33 34 35 36 39 41 44 45 44 46 45 43 43
7 11 11 6 7 9 17 13 12 6 11 9 12 13 10 6 3 5 7 5 5 4 4 8 11 12 13 14 15 17 18 19 22 24 27 27 27 27 27 28 29 32 35 37 37 39 40 42 44 44 45 46 47 48
Wind_Direction_850mb
247 245 242 241 238 239 234 233 236 237 238 238 232 230 232 239 240 243 248 241 243 247 266 272 242 238 230 225 214 174 143 212 178 217 189 193 275 212 169 167 179 186 201 213 220 226 236 132 84 188 250 355 351 348
244 241 240 237 236 232 228 230 234 236 238 234 231 227 230 232 238 239 247 253 249 245 244 256 265 256 251 242 238 213 232 188 202 201 195 177 228 271 203 244 304 207 194 196 193 209 180 202 350 207 172 176 160 17
244 239 234 231 229 226 225 229 232 235 237 231 228 224 227 233 237 236 238 247 259 243 261 253 264 270 252 247 243 232 215 224 210 216 198 222 216 165 221 232 206 259 192 181 182 211 211 200 200 190 161 142 125 120
245 234 227 226 222 217 224 228 233 239 235 229 225 220 222 229 234 238 237 240 243 250 249 254 256 247 259 251 239 238 246 222 232 230 214 220 228 198 219 220 205 180 139 166 278 182 151 228 203 185 159 139 132 125
234 225 221 219 212 217 224 227 232 233 230 227 223 217 218 223 230 237 244 242 238 235 281 247 264 273 257 257 245 235 229 225 218 215 207 213 178 162 226 305 219 186 172 183 214 183 153 188 199 181 170 159 156 147
226 218 217 207 209 217 224 227 232 226 226 221 217 212 209 217 227 234 261 253 237 237 255 266 272 238 249 251 248 240 226 219 210 208 188 215 195 171 204 228 264 202 191 189 184 155 129 131 188 179 166 158 156 182
218 206 201 204 214 223 223 225 225 219 215 215 213 207 212 218 220 211 202 224 232 221 218 258 270 249 223 210 223 225 217 207 210 212 212 194 207 183 198 219 30 125 174 142 143 134 111 136 170 183 187 169 161 150
198 192 196 203 215 223 221 216 209 207 206 207 209 215 221 226 231 239 238 234 248 195 197 203 240 255 184 160 196 202 192 182 192 201 177 199 155 202 218 162 159 129 143 133 145 185 163 152 159 179 182 175 153 151
192 192 196 203 216 214 208 201 198 197 200 205 211 218 221 228 236 242 243 245 246 251 284 336 174 218 176 169 158 227 200 173 158 199 203 167 185 204 144 169 154 145 156 131 133 139 141 144 143 151 164 162 166 159
178 190 199 207 201 200 199 191 191 193 198 204 199 194 197 203 237 231 208 220 219 239 230 235 224 270 197 159 140 189 246 159 160 192 148 209 211 112 142 148 159 157 160 151 142 133 137 134 140 143 147 148 148 147
180 187 186 187 187 191 196 194 196 198 200 197 187 165 167 174 175 191 206 187 205 240 208 215 196 171 214 109 150 191 206 175 143 235 177 176 267 159 173 168 166 171 162 160 159 151 148 146 145 146 145 147 149 150
175 180 188 191 198 200 200 202 201 196 192 168 150 141 169 201 207 198 201 268 169 206 164 166 188 170 160 184 145 180 173 83 198 143 94 225 195 141 165 168 164 165 157 160 152 149 149 151 149 149 146 147 150 150
180 191 197 204 204 204 197 195 191 188 140 133 131 152 160 228 221 228 201 263 188 181 168 155 169 148 139 179 195 172 161 201 118 82 199 221 136 162 166 165 160 157 155 154 155 155 152 154 151 149 146 147 150 144
203 202 196 203 196 194 187 186 190 162 150 132 152 205 188 211 213 310 277 242 331 274 183 180 137 178 140 156 167 155 121 153 98 154 231 154 154 160 164 167 160 159 156 155 154 152 152 151 149 145 144 138 130 132
168 152 146 163 179 185 185 188 191 169 140 163 164 201 220 308 340 323 305 272 350 299 267 172 133 151 144 144 159 134 138 180 190 215 84 109 142 151 153 159 160 159 158 156 150 147 145 144 144 139 132 128 130 128
159 152 143 143 162 172 174 183 194 179 127 106 56 336 346 74 328 10 354 338 350 340 285 239 184 152 135 154 130 191 134 192 200 351 63 129 130 136 142 144 145 143 143 141 138 139 136 135 135 131 126 124 121 119
141 129 141 151 181 176 177 187 166 94 80 73 77 59 77 69 60 358 348 338 342 345 359 306 96 38 85 76 72 9 71 11 353 79 101 112 123 126 129 129 130 132 132 132 132 129 128 125 122 122 125 116 117 118
96 130 126 190 151 159 155 119 91 79 69 60 84 58 63 51 17 7 352 1 359 11 14 52 357 43 31 107 119 15 76 86 93 98 105 114 117 120 124 125 127 128 126 125 125 122 118 120 124 115 115 113 117 115
72 109 143 172 176 139 76 51 42 85 73 93 99 82 77 76 45 36 21 24 51 63 69 37 61 43 19 11 10 47 79 123 117 103 104 114 117 122 124 126 126 124 122 120 121 119 116 116 112 111 109 105 100 100
67 82 101 131 140 94 79 46 56 74 68 86 82 73 77 74 40 27 35 47 56 52 43 40 60 57 357 336 55 91 101 123 125 107 100 114 123 129 127 128 126 124 121 118 114 110 111 110 106 102 98 97 90 85
116 70 111 148 65 66 81 62 65 70 97 82 100 79 80 54 35 22 18 28 59 34 54 24 21 21 40 32 94 118 132 135 130 139 133 125 129 130 126 122 122 121 117 112 111 110 109 106 105 103 95 81 64 19
192 171 101 64 75 73 73 49 73 85 73 90 59 57 49 48 34 21 27 44 58 20 26 23 38 64 84 99 106 122 125 129 131 134 134 133 131 127 122 120 127 121 116 109 109 108 107 108 109 106 91 55 336 316
140 118 68 52 85 57 29 43 69 32 62 57 50 45 37 45 36 26 71 58 68 28 63 68 80 88 101 102 114 120 123 131 131 132 135 134 130 126 124 124 121 118 116 114 112 111 114 109 98 77 46 350 321 308
88 55 34 39 32 34 23 34 40 35 55 47 43 54 35 27 41 61 74 62 17 46 80 92 109 110 105 110 103 107 113 126 125 127 127 130 126 121 122 118 117 114 110 108 106 100 88 64 15 348 329 312 304 301
79 15 23 6 17 27 32 21 12 32 56 35 67 43 12 18 65 57 65 30 35 64 78 92 110 118 109 101 100 101 107 112 116 121 120 122 119 118 117 113 108 104 103 102 82 40 330 313 316 314 307 304 302 302
67 23 45 4 6 46 354 55 29 22 8 63 41 38 40 61 68 62 42 68 80 88 101 106 108 110 107 106 110 116 114 119 126 135 130 127 121 116 111 107 108 106 79 321 293 296 301 303 303 304 306 306 306 306
47 343 26 23 13 21 45 41 34 47 51 31 351 2 50 67 73 68 116 112 127 117 112 114 120 122 117 118 118 119 121 126 136 133 124 121 124 115 88 328 295 296 299 307 309 309 309 308 309 308 308 309 311 312
51 32 35 357 39 34 81 39 28 26 15 346 312 37 70 102 143 141 144 131 130 125 123 118 118 119 119 121 123 130 139 137 138 147 161 219 293 308 307 299 297 307 306 305 306 307 310 313 312 308 307 309 311 314
19 351 47 22 36 52 42 30 351 327 325 347 37 87 109 92 128 131 131 124 118 116 119 115 113 110 108 115 124 131 136 348 295 278 284 299 306 305 302 296 300 301 303 306 306 305 303 301 302 302 307 310 312 314
10 21 64 33 50 47 12 24 32 55 87 95 96 106 99 99 111 118 122 124 119 112 106 104 101 97 83 36 324 318 319 311 301 297 303 303 297 293 293 296 297 296 296 296 295 293 293 294 295 296 298 302 305 306
29 30 48 46 72 35 53 74 78 78 83 87 97 94 92 99 85 68 74 103 139 140 107 73 38 10 349 342 336 323 307 298 298 299 297 297 297 295 290 288 288 289 292 294 295 296 296 297 298 299 301 304 306 307
27 35 24 53 39 37 71 56 54 58 49 54 43 47 53 62 72 69 42 47 80 149 129 23 8 347 330 317 307 305 305 300 297 295 294 292 290 290 292 293 293 292 293 293 295 296 296 298 299 301 303 305 308 309
40 33 47 42 27 23 8 13 39 40 43 39 34 29 32 34 65 23 355 345 356 6 301 305 314 312 307 302 298 299 295 292 293 296 298 300 300 296 293 289 285 286 289 291 292 293 294 295 297 300 302 304 306 307